User: anonymous   Login
Location: Fort Wayne
(41.1310°N, 85.1290°W)
Time: 15:11:27
(UTC-05:00)
Language:

Oscar 19 - Orbit

View from above orbital plane
View from above orbital plane
View from above satellite
View from above satellite

Ground track
Ground track

The orbit data is extracted from the following two-line orbital elements,

1 20442U 90005G   17059.76694989  .00000037  00000-0  29553-4 0  9994
2 20442  98.5678 357.4319 0012872 106.3561 253.9039 14.32850041416090
Epoch (UTC): 28 February 2017 18:24:24
Eccentricity: 0.0012872
inclination: 98.5678°
perigee height: 773 km
apogee height: 791 km
right ascension of ascending node: 357.4319°
argument of perigee: 106.3561°
revolutions per day: 14.32850041
mean anomaly at epoch: 253.9039°
orbit number at epoch: 41609

The dashed part of the orbit path shows where the satellite is in the earth's shadow,  

DLR